Location: Thompson
(55.7500°N, 97.8670°W)
Time: 07:03:53
(UTC-05:00)

Cosmos 1666 - Visible Passes

Search period start: 01 September 2015 00:00
Search period end: 11 September 2015 00:00
Orbit: 507 x 533 km, 82.5° (Epoch: 31 August)

Date Brightness Start Highest point End Pass type
(mag) Time Alt. Az. Time Alt. Az. Time Alt. Az.
01 Sep 3.3 21:42:39 10° SSE 21:46:16 37° E 21:49:53 10° NNE visible
01 Sep 4.8 23:18:48 10° SW 23:22:12 27° WNW 23:25:34 10° N visible
02 Sep 3.5 21:29:04 10° SSE 21:32:33 33° E 21:36:05 10° NNE visible
02 Sep 4.6 23:04:55 10° SW 23:08:25 30° WNW 23:11:54 10° N visible
03 Sep 3.6 21:15:29 10° SSE 21:18:52 29° E 21:22:16 10° NNE visible
03 Sep 4.4 22:51:03 10° SW 22:54:38 34° WNW 22:58:13 10° N visible
04 Sep 3.8 21:01:56 10° SSE 21:05:09 26° E 21:08:26 10° NNE visible
04 Sep 4.2 22:37:12 10° SW 22:40:52 38° WNW 22:44:31 10° N visible
05 Sep 3.9 20:48:23 10° SE 20:51:27 23° E 20:54:35 10° NE visible
05 Sep 3.9 22:23:22 10° SW 22:27:05 43° WNW 22:30:49 10° N visible
06 Sep 3.7 22:09:32 10° SSW 22:13:19 49° WNW 22:17:05 10° N visible
07 Sep 3.4 21:55:43 10° SSW 21:59:32 56° WNW 22:03:21 10° N visible
08 Sep 3.2 21:41:55 10° SSW 21:45:46 64° WNW 21:49:36 10° N visible
08 Sep 6.2 23:21:35 10° WNW 23:22:29 11° NW 23:23:13 10° NW visible
09 Sep 2.9 21:28:08 10° SSW 21:32:00 73° WNW 21:35:52 10° N visible
09 Sep 6.1 23:07:08 10° WNW 23:08:38 12° NW 23:09:59 10° NW visible
10 Sep 2.8 21:14:22 10° SSW 21:18:14 84° WNW 21:22:06 10° N visible
10 Sep 6.0 22:52:52 10° W 22:54:46 13° NW 22:56:32 10° NNW visible
